Simultaneous Nadir Overpasses (SNOs) Predictions

Prediction of SNOs between GOES-14 and NOAA-20 Satellite Orbit:

Table of predicted SNOs for the next 14.0 days since TLE Epoch: 4/29/2023
Index Date Time (GOES-14) GOES-14 Lat,Lon NOAA-20 Lat,Lon Distance(km) Time Diff (sec)
1 04/30/2023 08:52:37 0.17,-108.30 0.85,-111.28 339.54 80
2 05/01/2023 08:31:13 0.18,-108.30 -0.16,-106.74 177.60 80
3 05/02/2023 20:53:10 -0.16,-108.29 -0.99,-112.05 428.03 80
4 05/03/2023 20:37:06 -0.17,-108.31 0.02,-107.52 89.92 80
5 05/06/2023 08:37:30 0.16,-108.35 0.14,-108.26 10.61 80
6 05/08/2023 20:40:41 -0.15,-108.32 -0.32,-109.02 80.04 80
7 05/09/2023 20:24:37 -0.16,-108.33 0.69,-104.49 437.26 80
8 05/11/2023 08:46:25 0.15,-108.37 0.47,-109.76 159.16 80
9 05/12/2023 08:25:01 0.16,-108.36 -0.55,-105.23 357.43 80
